Starlink 34306

operational
NORAD ID: 64259 Int'l Des: 2025-120 Owner: SPXS Country: US Constellation: starlink
LEOCIRCULAR

Über Starlink 34306

Beschreibung wird geladen...

Live-Position

3D-Globus wird geladen...

Nächste Überflüge

Höhenverlauf

Altitude vs Time

uPlot chart will show altitude changes over time

Zweizeiliger Elementsatz

1 64259U 25120D 25354.55357091 .00019542 00000-0 66997-3 0 9991
2 64259 53.1578 124.0163 0001882 80.0381 280.0832 15.30210287 31751
Epoch: 20. Dez. 2025 • Age: 8 hours

Aktueller Status

Höhe 479.8 km
Geschwindigkeit 7.63 km/s
Subsatellitenpunkt 50.44°N, 135.46°E
Startdatum 4. Juni 2025
Alter 0.5 years
Typ internet

Technische Details

Klassifizierung Payload
Masse 575.00 kg
Trockenmasse 530.00 kg
Gesamtmasse 575.00 kg
Länge 0.30 m
Durchmesser 4.10 m
Spannweite 29.00 m
Form Box + pan
Hersteller SPXS
Bus-Typ Starlink V2MO
Phasenstatus In Orbit
Besitzer/Staat SPXS/US

Große Konstellationen

Loading constellations...